FLOCK 4V-7 (46291 NORAD) Tracking and Keplerian Element Data

This shows tracking and keplerian element data for the satellite.

Feedback or suggestion? Click here.




ElementValue
Catalog46291
NameFLOCK 4V-7
Epoch Orbit1270
Epoch Day332.16282375
Epoch Year2020
RAAN43.6737
Inclination97.5115
Eccentricity0.0003957
Argument of Perigee76.3272
Mean Anonmoly283.8398
Mean Motion15.10098618
Decay Rate1.182E-05
L11 46291U 20061V 20332.16282375 .00001182 00000-0 76401-4 0 9999
L22 46291 97.5115 43.6737 0003957 76.3272 283.8398 15.10098618 12703

Live tracking and technical data element details for FLOCK 4V-7 (NORAD 46291). FLOCK 4V-7 can be tracked NOW for your location showing map with azimuth and elevation plus other details from your city location.

Track the satellite on the map from your city or location and see movement details for azimuth, elevation, latitude, longitude, range, height, and movement on the map or in text.







IsCatalogInMostPopularTable: catalog: 46291, numindb: 15
Update: records affected: 1



GetName: 46291 FLOCK 4V-7

Hit Count: updated at: Fri, 27 Nov 2020 13:49:27 GMT